Location: Buckhorn Peak
(37.6641°N, 120.1241°W)
Time: 21:55:31
(UTC+00:00)

SL-16 R/B - Pass Details

Date: 05 August 2024
Orbit: 985 x 1006 km, 99.7° (Epoch: 08 September)

Event Time Altitude Azimuth Distance (km) Brightness Sun altitude
Exits shadow 12:15:27 12° 229° (SW) 2,582 4.1 -10.2°
Maximum altitude 12:18:55 19° 267° (W) 2,176 3.8 -9.6°
Drops below altitude 10° 12:23:04 10° 310° (NW) 2,746 4.7 -8.9°
Sets 12:26:24 0° 328° (NNW) 3,701 5.5 -8.3°
